Погода Верхний Баскунчак

Погода Верхний Баскунчак : погода сейчас, прогноз погоды и архив. Всё, что Вы хотите узнать о погоде Верхний Баскунчак!

Хотите узнать прогноз погоды Верхний Баскунчак? Тогда Вам сюда: Погода Верхний Баскунчак

Поиск расширенной информации на нашем сайте:

Другие новости

Новости СМИ2

Главная страница сайта

Новости сайта

02.10.2013

Напоминаем, что на нашем новом сайте вы можете получить высокодетализированные прогнозы погоды по пунктам России, СНГ и мира (включающие важные для авиации метеовеличины, такие как направление и скорость ветра, видимость, явления погоды, количество и форма облачности, нижняя и верхняя граница облачности), а также ознакомиться с разнообразными материалами по авиационной метеорологии и подборкой полезных ссылок на эту тему.

Сайт Метеоцентр.Азия посвящён разработке технологий оптимизации авиаметеорологического обслуживания, включая проектирование и перспективное создание нескольких автоматизированных авиаметеорологических систем:
- система выпуска высокодетальных прогностических карт явлений погоды для нижнего воздушного пространства по России и ближнему зарубежью;
- система верификации прогнозов TAF (выпускаемых синоптиками официальных АМСГ РФ и ближнего зарубежья) и AUTOTAF (выпускаемых сайтом Метеоцентр.Азия) - выявление ошибок, онлайн-сопоставление с фактической погодой METAR, автоматическое внесение коррективов в прогнозы при резком отклонении фактической погоды от прогноза, подсчёт оправдываемости прогнозов по элементам и в целом;
- система обработки, анализа и отображения авиаметеорологической информации для применения провайдерами метеорологической информации.


Погода Верхний Баскунчак - сегодня

Время (UTC), дата Ветер
(°,м/с) 
Видим.   Явления Облачность Т
(°С)
Тd
(°С)
f(%) Тe
(°С)
Pmin
(гПа)
dP
(гПа)
Po
(мм)
O2
(г/м3)
Тmin Tmax R s Состояние
почвы
18 19.06.17 220 (ЮЗ) 20000 м    3/0 верхняя 
[Ci sp]
+21.2 +9.4 47 +22  1008.9  0.6  754  280           
21 19.06.17 220 (ЮЗ) 20000 м    ясно 
+18.7 +9.6 55 +21  1008.5  -0.5  753  282           
00 20.06.17 280 (З) 20000 м    ясно 
+14.9 +10.5 75 +18  1007.8  -0.7  753  286           
03 20.06.17 тихо ()   20000 м    ясно 
+20.7 +10.9 53 +23  1007.7  753  280  +14.2        сухая 
06 20.06.17 250 (З) 20000 м    ясно 
+27.3 +6.3 26 +27  1007.1  -0.5  752  275           
09 20.06.17 270 (З) 20000 м    6/4 1000 м верхняя 
[Cu hum|Ci sp]
+29.4 +4.1 20 +29  1006.4  -0.8  752  273           
12 20.06.17 260 (З) 20000 м    8/4 1000 м верхняя 
[Cu med, cong|Ci sp]
+31 +2.5 16 +31  1005.3  -1  751  271           
15 20.06.17 310 (СЗ) 2{11}  20000 м    6/3 1000 м верхняя 
[Cu hum|Ci sp]
+28.2 +7.7 27 +28  1005.3  -0.1  751  273    +31.1       
18 20.06.17 330 (СЗ) 20000 м    4/0 средняя 
[Ac cuf]
+24.1 +10.4 42 +26  1006  0.7  751  276           
21 20.06.17 020 (С) 20000 м    ясно 
+20.7 +7.9 44 +21  1006.4  0.4  752  280           
00 21.06.17 040 (СВ) 20000 м    8/0 средняя 
[Ac trans]
+20.5 +8.2 45 +21  1006.3  -0.1  752  280           
03 21.06.17 060 (СВ) 20000 м    6/0 средняя 
[Ac trans]
+21.5 +9.6 47 +22  1006.5  0.2  752  279  +19        сухая 
06 21.06.17 070 (В) 20000 м    3/0 средняя 
[As trans]
+28.2 +7.3 27 +28  1005.9  -0.5  751  273           
09 21.06.17 260 (З) 20000 м    6/6 1000 м 
[Cu hum]
+30.9 +6.8 22 +31  1004.8  -1.1  751  271           
12 21.06.17 310 (СЗ) 2{12}  20000 м    4/4 1000 м 
[Cu hum]
+32.1 +2.7 16 +32  1003.7  -1.1  750  270           
15 21.06.17 250 (З) 20000 м    3/3 1000 м 
[Cu hum]
+31.1 +6 21 +31  1002.8  -0.9  749  270    +32.3       
18 21.06.17 270 (З) 20000 м    6/6 600 м 
[Sc]
+26.3 +11.3 39 +29  1004  1.1  750  274           
21 21.06.17 240 (ЮЗ) 3{10}  20000 м    ясно 
+22.5 +13.1 55 +28  1004.6  0.6  750  277           
00 22.06.17 250 (З) 20000 м    ясно 
+20.6 +14.1 66 +28  1003.7  -0.9  750  278           
03 22.06.17 270 (З) 20000 м    6/0 средняя 
[Ac trans]
+21.2 +14.1 64 +28  1004.1  0.4  750  278  +19.9        сухая 
06 22.06.17 240 (ЮЗ) 20000 м    4/3 1000 м верхняя 
[Cu hum|Ci fib]
+27.6 +12.3 39 +32  1004.1  0.1  750  272           
09 22.06.17 260 (З) 5-10{11}  20000 м    4/3 1000 м верхняя 
[Cu med, cong|Ci sp]
+29.6 +11.2 32 +32  1003.9  -0.2  750  271           
12 22.06.17 240 (ЮЗ) 4{11}  20000 м    8/8 600 м 
[Sc]
+28.1 +13.2 40 +34  1003.4  -0.5  750  271           
15 22.06.17 320 (СЗ) 4{11}  20000 м    9/9 600 м 
[Sc]
+27.4 +9.7 33 +28  1004.4  0.9  750  273    +30.8       
18 22.06.17 340 (С) 20000 м    8/8 600 м 
[Sc]
+23.1 +8.8 40 +23  1007.4  752  278           
Время (UTC), дата Ветер
(°,м/с) 
Видим.   Явления Облачность Т
(°С)
Тd
(°С)
f(%) Тe
(°С)
Pmin
(гПа)
dP
(гПа)
Po
(мм)
O2
(г/м3)
Тmin Tmax R s Состояние
почвы

Для получения пояснительной информации подведите курсор к названию столбца.

ПОГОДА Верхний Баскунчак - архив

Всё, что Вы хотите узнать о погоде Верхний Баскунчак - удобно и подробно!

Выберите нужную дату (начиная с 1 января 2015* года) и нажмите кнопку "Найти".
Будут отображены архивные сводки погоды по пункту Верхний Баскунчак, начиная с указанной даты.


Отображать данные в формате CSV (для использования в таблицах Excel)


Внимание! Наш архив погоды предназначен исключительно для личного некоммерческого использования в познавательных целях. Если Вам необходимы официальные справки о состоянии погоды (для производственных, юридических, коммерческих и т.п. целей), обращайтесь в органы Росгидромета.

*Примечание: данная дата относится к архиву по метеостанциям СССР (Россия, СНГ, Балтия).
Архив по метеостанциям Зарубежной Европы и Азии (кроме Китая) хранится 10 дней, по другим регионам земного шара (Китай, Африка, Америка, Австралия, Океания) - 1 день.

Верхний Баскунчак - район местоположения метеостанции


Название, широта, долгота, высота метеостанции:
Верхний Баскунчак 48.2°ш. 46.7°д. 34 м над ур. моря [Российская Федерация]

Дополнительная информация

В oтличие oт бoльшинства пoгoдных сайтoв мы публикуем пoдрoбную метеoинфoрмацию в детальнoм прoфессиoнальнoм фoрмате.

Характеристики температуры и влажнoсти вoздуха измеряются на высoте 2 м в тени вдали oт зданий и деревьев.
Скoрoсть ветра измеряется на высoте 10 м (на урoвне рoста челoвека скoрoсть ветра ниже в 1.5-2 раза). Если метеoстанция нахoдится в гoрoде или в лесу, тo скoрoсть ветра занижена на 2-4 м/с пo сравнению с oткрытым местoм. Скoрoсть ветра над акватoриями крупных рек и oзёр, а также на вершинах хoлмoв на 2-5 м/с выше, чем в oбычных услoвиях.
Атмoсфернoе давление в разных тoчках местнoсти мoжет значительнo oтличаться oт давления на метеoстанции, в зависимoсти oт услoвий рельефа (при пoдъёме на 10 м давление пoнижается примернo на 1 мм рт.ст.).